Nashua, NH

8:26 PM EST on December 10, 2019 (GMT -0500)
Boire

Weather History for KASH - August, 2019

Change the Weather History Date:

Sunday, August 25, 2019

  Actual Average Record
Temperature  
Mean Temperature 62 °F -  
Max Temperature 73 °F 78 °F 97 °F (2007)
Min Temperature 48 °F 53 °F 33 °F (2001)
Degree Days  
Heating Degree Days 4    
Growing Degree Days 12 (Base 50)    
Moisture  
Dew Point 53 °F    
Average Humidity 76    
Maximum Humidity 100    
Minimum Humidity 39    
Precipitation  
Precipitation 0.00 in - - ()
Sea Level Pressure  
Sea Level Pressure 30.35 in    
Wind  
Wind Speed 5 mph ()    
Max Wind Speed 15 mph    
Max Gust Speed 23 mph    
Visibility 10.0 miles    
Events      
Averages and records for this station are not official NWS values.
T = Trace of Precipitation, MM = Missing Value Source: Averaged Metar Reports

Daily Weather History Graph

Daily Weather History Graph

Search for Another Location

Airport or City:

Astronomy

Aug. 25, 2019 Rise Set
Actual Time 6:02 AM EDT 7:32 PM EDT
Civil Twilight 5:33 AM EDT 8:02 PM EDT
Nautical Twilight 4:57 AM EDT 8:37 PM EDT
Astronomical Twilight 4:19 AM EDT 9:15 PM EDT
Moon 12:31 AM EDT (8/25) 3:55 PM EDT (8/25)
Length of Visible Light 14h 28m
Length of Day
13h 29m
Waning Crescent, 29% of the Moon is Illuminated
Aug 25
Waning Crescent
Aug 30
New
Sep 5
First Quarter
Sep 14
Full
Sep 21
Last Quarter

Hourly Weather History & Observations

Time (EDT) Temp. Dew Point Humidity Pressure Visibility Wind Dir Wind Speed Gust Speed Precip Events Conditions
12:56 AM 57.0 °F 57.0 °F 100% 30.34 in 10.0 mi WNW 3.5 mph - N/A   Partly Cloudy
1:56 AM 57.0 °F 57.0 °F 100% 30.33 in 10.0 mi WNW 3.5 mph - N/A   Clear
2:56 AM 57.0 °F 57.0 °F 100% 30.32 in 10.0 mi West 3.5 mph - N/A   Clear
3:16 AM 57.2 °F 55.4 °F 94% 30.31 in 10.0 mi WNW 3.5 mph - N/A   Mostly Cloudy
3:56 AM 57.0 °F 57.0 °F 100% 30.33 in 10.0 mi NW 4.6 mph - N/A   Overcast
4:06 AM 57.2 °F 57.2 °F 100% 30.31 in 10.0 mi WNW 4.6 mph - N/A   Overcast
4:56 AM 57.9 °F 57.9 °F 100% 30.33 in 10.0 mi NW 4.6 mph - N/A   Overcast
5:56 AM 57.9 °F 57.9 °F 100% 30.34 in 10.0 mi NNW 3.5 mph - N/A   Scattered Clouds
6:56 AM 59.0 °F 57.9 °F 96% 30.36 in 10.0 mi NNE 4.6 mph - N/A   Partly Cloudy
7:56 AM 61.0 °F 57.9 °F 90% 30.38 in 10.0 mi Variable 5.8 mph - N/A   Scattered Clouds
8:45 AM 62.6 °F 57.2 °F 82% 30.37 in 10.0 mi NE 9.2 mph - N/A   Mostly Cloudy
8:56 AM 64.0 °F 57.0 °F 78% 30.38 in 10.0 mi ENE 8.1 mph - N/A   Mostly Cloudy
9:56 AM 66.0 °F 53.1 °F 63% 30.39 in 10.0 mi ENE 9.2 mph - N/A   Mostly Cloudy
10:56 AM 64.9 °F 51.1 °F 61% 30.38 in 10.0 mi NNE 10.4 mph 19.6 mph N/A   Mostly Cloudy
11:56 AM 69.1 °F 50.0 °F 51% 30.38 in 10.0 mi East 15.0 mph 21.9 mph N/A   Mostly Cloudy
12:56 PM 71.1 °F 50.0 °F 47% 30.37 in 10.0 mi East 10.4 mph 17.3 mph N/A   Mostly Cloudy
1:56 PM 72.0 °F 50.0 °F 46% 30.36 in 10.0 mi East 9.2 mph 19.6 mph N/A   Scattered Clouds
2:56 PM 72.0 °F 48.0 °F 43% 30.34 in 10.0 mi East 11.5 mph 20.7 mph N/A   Scattered Clouds
3:56 PM 71.1 °F 48.9 °F 45% 30.33 in 10.0 mi ESE 10.4 mph 21.9 mph N/A   Clear
4:56 PM 70.0 °F 44.1 °F 39% 30.34 in 10.0 mi East 11.5 mph 23.0 mph N/A   Clear
5:56 PM 68.0 °F 46.0 °F 45% 30.32 in 10.0 mi ESE 9.2 mph - N/A   Clear
6:56 PM 64.9 °F 51.1 °F 61% 30.33 in 10.0 mi ESE 9.2 mph - N/A   Clear
7:56 PM 62.1 °F 48.9 °F 62% 30.34 in 10.0 mi Variable 5.8 mph - N/A   Clear
8:56 PM 59.0 °F 50.0 °F 72% 30.35 in 10.0 mi Calm Calm - N/A   Clear
9:56 PM 55.0 °F 51.1 °F 86% 30.34 in 10.0 mi WNW 4.6 mph - N/A   Clear
10:56 PM 51.1 °F 50.0 °F 96% 30.34 in 10.0 mi WNW 5.8 mph - N/A   Clear
11:56 PM 48.9 °F 48.9 °F 100% 30.32 in 10.0 mi WNW 6.9 mph - N/A   Clear